TimeEDT,TemperatureF,Dew PointF,Humidity,Sea Level PressureIn,VisibilityMPH,Wind Direction,Wind SpeedMPH,Gust SpeedMPH,PrecipitationIn,Events,Conditions,WindDirDegrees,DateUTC
12:15 AM,19.4,15.8,86,29.59,10.0,Calm,Calm,-,N/A,,Clear,0,2013-03-22 04:15:00
12:35 AM,19.4,15.8,86,29.58,10.0,Calm,Calm,-,N/A,,Clear,0,2013-03-22 04:35:00
12:55 AM,21.2,15.8,80,29.61,10.0,North,3.5,-,N/A,,Clear,360,2013-03-22 04:55:00
1:15 AM,21.2,17.6,86,29.60,10.0,NNE,4.6,-,N/A,,Clear,20,2013-03-22 05:15:00
1:35 AM,21.2,17.6,86,29.63,10.0,Calm,Calm,-,N/A,,Clear,0,2013-03-22 05:35:00
1:55 AM,19.4,15.8,86,29.59,10.0,Calm,Calm,-,N/A,,Clear,0,2013-03-22 05:55:00
2:15 AM,19.4,10.4,68,-9999,10.0,Calm,Calm,-,N/A,,Clear,0,2013-03-22 06:15:00
2:35 AM,21.2,14.0,74,29.63,10.0,North,3.5,-,N/A,,Clear,10,2013-03-22 06:35:00
2:55 AM,19.4,12.2,74,29.62,10.0,NNE,3.5,-,N/A,,Clear,20,2013-03-22 06:55:00
3:15 AM,21.2,15.8,80,29.61,10.0,NNE,3.5,-,N/A,,Clear,20,2013-03-22 07:15:00
3:35 AM,19.4,12.2,74,29.61,10.0,Calm,Calm,-,N/A,,Scattered Clouds,0,2013-03-22 07:35:00
3:55 AM,21.2,15.8,80,29.61,10.0,Calm,Calm,-,N/A,,Overcast,0,2013-03-22 07:55:00
4:15 AM,21.2,15.8,80,29.61,10.0,Calm,Calm,-,N/A,,Overcast,0,2013-03-22 08:15:00
12:15 PM,33.8,12.2,41,29.62,10.0,WNW,8.1,-,N/A,,Mostly Cloudy,290,2013-03-22 16:15:00
12:35 PM,33.8,12.2,41,-9999,10.0,West,10.4,-,N/A,,Overcast,260,2013-03-22 16:35:00
12:55 PM,35.6,14.0,41,-9999,10.0,NNW,8.1,-,N/A,,Overcast,330,2013-03-22 16:55:00
1:15 PM,35.6,10.4,35,-9999,10.0,NW,8.1,-,N/A,,Overcast,320,2013-03-22 17:15:00
1:35 PM,37.4,12.2,36,29.60,10.0,West,9.2,-,N/A,,Overcast,270,2013-03-22 17:35:00
1:55 PM,35.6,10.4,35,29.59,10.0,Calm,Calm,-,N/A,,Overcast,0,2013-03-22 17:55:00
2:15 PM,35.6,10.4,35,29.58,10.0,WNW,8.1,-,N/A,,Overcast,300,2013-03-22 18:15:00
2:35 PM,35.6,12.2,38,29.58,10.0,West,6.9,-,N/A,,Overcast,280,2013-03-22 18:35:00
2:55 PM,35.6,12.2,38,29.58,10.0,NNW,10.4,-,N/A,,Overcast,330,2013-03-22 18:55:00
3:15 PM,35.6,15.8,44,29.59,10.0,North,12.7,-,N/A,,Overcast,360,2013-03-22 19:15:00
3:35 PM,35.6,15.8,44,29.59,10.0,NW,12.7,17.3,N/A,,Overcast,310,2013-03-22 19:35:00
3:55 PM,35.6,14.0,41,29.59,10.0,NW,10.4,-,N/A,,Overcast,310,2013-03-22 19:55:00
4:15 PM,35.6,10.4,35,29.59,10.0,WNW,11.5,20.7,N/A,,Mostly Cloudy,290,2013-03-22 20:15:00
4:35 PM,37.4,12.2,36,29.59,10.0,NW,11.5,18.4,N/A,,Mostly Cloudy,310,2013-03-22 20:35:00
4:55 PM,35.6,12.2,38,29.59,10.0,WNW,10.4,-,N/A,,Mostly Cloudy,290,2013-03-22 20:55:00
5:15 PM,35.6,10.4,35,29.59,10.0,NW,13.8,19.6,N/A,,Overcast,320,2013-03-22 21:15:00
5:35 PM,35.6,12.2,38,29.60,10.0,NW,11.5,-,N/A,,Overcast,310,2013-03-22 21:35:00
5:55 PM,35.6,12.2,38,29.60,10.0,NW,10.4,-,N/A,,Mostly Cloudy,310,2013-03-22 21:55:00
6:15 PM,35.6,12.2,38,29.60,10.0,NNW,8.1,-,N/A,,Mostly Cloudy,330,2013-03-22 22:15:00
6:55 PM,33.8,14.0,44,29.62,10.0,NNW,5.8,-,N/A,,Mostly Cloudy,340,2013-03-22 22:55:00
7:15 PM,33.8,12.2,41,29.62,10.0,NNW,5.8,-,N/A,,Mostly Cloudy,340,2013-03-22 23:15:00
7:35 PM,32.0,14.0,48,29.62,10.0,NNW,3.5,-,N/A,,Partly Cloudy,330,2013-03-22 23:35:00
7:55 PM,30.2,12.2,47,29.63,10.0,Calm,Calm,-,N/A,,Mostly Cloudy,0,2013-03-22 23:55:00
8:15 PM,30.2,14.0,51,29.63,10.0,Calm,Calm,-,N/A,,Mostly Cloudy,0,2013-03-23 00:15:00
8:35 PM,28.4,14.0,55,29.64,10.0,Calm,Calm,-,N/A,,Mostly Cloudy,0,2013-03-23 00:35:00
8:55 PM,30.2,14.0,51,29.64,10.0,Calm,Calm,-,N/A,,Scattered Clouds,0,2013-03-23 00:55:00
9:15 PM,30.2,15.8,55,29.64,10.0,West,3.5,-,N/A,,Clear,280,2013-03-23 01:15:00
9:35 PM,30.2,15.8,55,29.63,10.0,West,4.6,-,N/A,,Clear,270,2013-03-23 01:35:00
9:55 PM,28.4,15.8,59,29.64,10.0,WSW,3.5,-,N/A,,Clear,240,2013-03-23 01:55:00
10:15 PM,28.4,17.6,64,29.64,10.0,West,5.8,-,N/A,,Scattered Clouds,280,2013-03-23 02:15:00
10:35 PM,28.4,17.6,64,29.63,10.0,WNW,6.9,-,N/A,,Scattered Clouds,290,2013-03-23 02:35:00
10:55 PM,30.2,17.6,60,29.63,10.0,WNW,5.8,-,N/A,,Clear,290,2013-03-23 02:55:00
11:15 PM,28.4,17.6,64,29.63,10.0,NNW,6.9,-,N/A,,Clear,330,2013-03-23 03:15:00
11:35 PM,28.4,17.6,64,29.63,10.0,NW,4.6,-,N/A,,Clear,320,2013-03-23 03:35:00
11:55 PM,28.4,17.6,64,29.64,10.0,NW,5.8,-,N/A,,Clear,320,2013-03-23 03:55:00